Weather in Zary

Poland     51°38′09″N   15°08′33″E
temp.,
°C
wind,
m/s
gust,
m/s
humid.,
%
clouds,
%
prec.,
mm/h
press.,
hPa
HPBL,
m
10 may, mon
mon1023:00+14s3889100 0.0 1010142
02:00+11se229314 0.0 101018
05:00+10se229188 0.0 100919
08:00+15sse366985 0.0 1009244
11:00+22s4649100 0.0 1008837
14:00+25ssw574792 0.0 10091153
17:00+26s564814 0.0 10081209
20:00+21s387592 0.0 1009185
11 may, tue
tue1123:00+16sw2291100 0.1 101026
02:00+15e2295100 0.1 100935
05:00+13ese3119397 0.0 1007266
08:00+17se487381 0.0 1007374
11:00+24ssw12515 0.0 10061153
14:00+27ssw134341 0.0 10051888
17:00+26sse344410 0.0 10041661
20:00+21se24717 0.0 100487
12 may, wed
wed1223:00+15wnw12974 0.0 100535
02:00+14wnw2410093 0.0 1005160
05:00+14w4696100 0.1 1006429
08:00+13w3696100 0.4 1007409
11:00+13w3492100 0.0 1008434
14:00+14wnw3384100 0.1 1009553
17:00+14nw338199 0.0 1008586
20:00+13nnw3586100 0.0 1007389
13 may, thu
thu1323:00+12nnw4798100 1.1 1006286
02:00+12n3899100 1.3 1004349
05:00+13ene279997 0.0 1003387
08:00+13e46852 0.0 1002452
11:00+18e45540 0.0 10011117
14:00+20e44424 0.0 10001666
17:00+20ese44456 0.0 9991799
20:00+15e227023 0.0 100036
14 may, fri
fri1423:00+11ssw24910 0.0 100169
02:00+10wsw4692100 0.0 1002336
05:00+10wsw4787100 0.0 1002478
08:00+10wsw4788100 0.0 1003551
11:00+10wsw5787100 0.0 1005604
14:00+10wsw5882100 0.1 1007691
17:00+10wsw5881100 0.0 1008660
20:00+9wsw4984100 0.0 1009518